Home   Weather   Hamilton   Past weeks

Flag for Canada Past Weather in Hamilton, Ontario, Canada — Yesterday and Last 2 Weeks

Now
37 °F

Passing clouds.


Feels Like: 34 °F
Forecast: 33 / 49 °F
Wind: 5 mph from Southwest

Location: Hamilton Airport

Current Time: Feb 27, 2017 at 8:02:56 pm

Latest Report: Feb 27, 2017 at 7:00 pm


Visibility: 15 mi

Pressure: 30.26 "Hg

Humidity: 60%

Dew Point: 25 °F

Location of HamiltonLocation

Past Weather in Hamilton — Graph

°F

Hamilton Temperature Yesterday

Maximum temperature yesterday: 36 °F (at 11:00 pm)
Minimum temperature yesterday: 23 °F (at 5:40 am)
Average temperature yesterday: 28 °F

High & Low Weather Summary for the Past Weeks

 TemperatureHumidityPressure
High64 °F (Feb 23, 3:00 pm)100% (Feb 12, 6:00 pm)30.38 "Hg (Feb 12, 6:00 pm)
Low18 °F (Feb 17, 2:00 am)49% (Feb 23, 3:00 pm)29.45 "Hg (Feb 25, 7:00 am)
Average36 °F79%29.86 "Hg
* Reported Feb 12 6:00 pm — Feb 27 6:00 pm, Hamilton, Weather by CustomWeather, © 2017

Note: Actual official high and low records may vary slightly from our data, if they occured in-between our weather recording intervals... More about our weather records

Advertising

Hamilton Weather History for the Previous 24 Hours

Scroll right to see more
 ConditionsComfort  
Time TempWeatherWind HumidityBarometerVisibility
6:00 pm
Mon, Feb 27
43 °FBroken clouds.12 mph53%30.26 "Hg15 mi
5:00 pm45 °FPartly sunny.9 mph61%30.25 "Hg15 mi
4:00 pm46 °FPartly sunny.9 mph57%30.23 "Hg15 mi
3:00 pm46 °FPartly sunny.14 mph53%30.22 "Hg15 mi
2:00 pm46 °FScattered clouds.20 mph53%30.22 "Hg15 mi
1:00 pm46 °FScattered clouds.15 mph57%30.23 "Hg15 mi
12:00 pm45 °FPassing clouds.16 mph57%30.25 "Hg15 mi
11:00 am43 °FPassing clouds.17 mph57%30.25 "Hg15 mi
10:00 am41 °FSunny.20 mph57%30.22 "Hg15 mi
9:00 am39 °FPassing clouds.13 mph61%30.22 "Hg15 mi
8:00 am36 °FPassing clouds.14 mph70%30.20 "Hg15 mi
7:00 am34 °FPassing clouds.14 mph70%30.18 "Hg15 mi
6:00 am36 °FPassing clouds.16 mph65%30.14 "Hg15 mi
5:00 am36 °FPassing clouds.20 mph65%30.11 "Hg15 mi
4:00 am36 °FPassing clouds.22 mph60%30.09 "Hg15 mi
3:00 am36 °FPassing clouds.18 mph60%30.09 "Hg15 mi
2:00 am37 °FPassing clouds.22 mph56%30.08 "Hg15 mi
1:00 am37 °FLight snow. Partly cloudy.18 mph56%30.07 "Hg15 mi
12:00 am36 °FPassing clouds.23 mph60%30.05 "Hg15 mi
11:00 pm
Sun, Feb 26
36 °FPassing clouds.20 mph60%30.05 "Hg15 mi
10:00 pm34 °FPassing clouds.17 mph65%30.06 "Hg15 mi
9:00 pm32 °FPassing clouds.16 mph69%30.06 "Hg15 mi
8:00 pm32 °FPassing clouds.15 mph69%30.06 "Hg15 mi
Weather by CustomWeather, © 2017

See weather overviewHow to use our weather pages